Canadian Warship 707 — CGBV — position and weather

sailwx.info

Track history (hours):
 
Tides and Currents Weather Stations Pressure Air Temp Water Temp Dewpoint Dewpoint Depression Visibility Wind Speed Wind Dir Waves Ship Positions

Canadian Warship 707

Last reported at 2014-Oct-22 23:33 UTC. Time now 2014-Oct-23 00:07 UTC.
Position N 44°39' W 063°35'.

Length 55 m; draft 3.3 m.

Type: Military. MMSI: 316200000.

Date/timePositionNaut miles runAvg speedWind from/ knotsBaromVisibWave heightAir tempDewpointWater temp
2014-Oct-22 23:33N 44°39' W 063°35'0 0.0
2014-Oct-22 22:33N 44°39' W 063°35'0 0.0
2014-Oct-22 21:27N 44°39' W 063°35'0 0.0
2014-Oct-22 20:27N 44°39' W 063°35'0 0.0
2014-Oct-22 19:27N 44°39' W 063°35'0 0.0
2014-Oct-22 18:30N 44°39' W 063°35'0 0.0
2014-Oct-22 17:15N 44°39' W 063°35'0 0.0
2014-Oct-22 16:30N 44°39' W 063°35'0 0.0
2014-Oct-22 15:30N 44°39' W 063°35'0 0.0
2014-Oct-22 14:33N 44°39' W 063°35'0 0.0
2014-Oct-22 13:33N 44°39' W 063°35'0 0.0
2014-Oct-22 12:33N 44°39' W 063°35'0 0.0
2014-Oct-22 11:33N 44°39' W 063°35'0 0.0
2014-Oct-22 10:33N 44°39' W 063°35'0 0.0
2014-Oct-22 09:33N 44°39' W 063°35'0 0.0
2014-Oct-22 08:33N 44°39' W 063°35'0 0.0
2014-Oct-22 07:33N 44°39' W 063°35'0 0.0
2014-Oct-22 06:33N 44°39' W 063°35'0 0.0
2014-Oct-22 05:33N 44°39' W 063°35'0 0.0
2014-Oct-22 04:33N 44°39' W 063°35'0 0.0
2014-Oct-22 03:33N 44°39' W 063°35'0 0.0
2014-Oct-22 02:33N 44°39' W 063°35'0 0.0
2014-Oct-22 01:33N 44°39' W 063°35'0 0.0
2014-Oct-22 00:33N 44°39' W 063°35'0 0.0
2014-Oct-21 23:33N 44°39' W 063°35'0 0.0
2014-Oct-21 22:33N 44°39' W 063°35'0 0.0
2014-Oct-21 21:33N 44°39' W 063°35'0 0.0
2014-Oct-21 20:32N 44°39' W 063°35'0 0.0
2014-Oct-21 19:33N 44°39' W 063°35'0 0.0
2014-Oct-21 18:33N 44°39' W 063°35'2 2.2
2014-Oct-21 17:33N 44°38' W 063°33'12 3.5
2014-Oct-21 14:12N 44°32' W 063°19'812.3
2014-Oct-21 13:33N 44°31' W 063°30'9 8.7
2014-Oct-21 12:33N 44°39' W 063°34'0 0.2
2014-Oct-21 11:25N 44°39' W 063°35'0 0.0
2014-Oct-21 10:25N 44°39' W 063°35'0 0.0
2014-Oct-21 09:25N 44°39' W 063°35'0 0.0
2014-Oct-21 08:13N 44°39' W 063°35'0 0.0
2014-Oct-21 07:28N 44°39' W 063°35'0 0.0
2014-Oct-21 06:28N 44°39' W 063°35'0 0.0
2014-Oct-21 05:31N 44°39' W 063°35'0 0.0
2014-Oct-21 04:31N 44°39' W 063°35'0 0.0
2014-Oct-21 03:28N 44°39' W 063°35'0 0.0
2014-Oct-21 02:31N 44°39' W 063°35'0 0.0
2014-Oct-21 01:31N 44°39' W 063°35'0 0.0
2014-Oct-21 00:31N 44°39' W 063°35'0 0.0
2014-Oct-20 23:33N 44°39' W 063°35'0 0.0
2014-Oct-20 22:33N 44°39' W 063°35'0 0.0
2014-Oct-20 21:33N 44°39' W 063°35'0 0.0
2014-Oct-20 20:33N 44°39' W 063°35'0 0.0
2014-Oct-20 19:33N 44°39' W 063°35'0 0.0
2014-Oct-20 18:33N 44°39' W 063°35'0 0.0
2014-Oct-20 17:33N 44°39' W 063°35'0 0.3
2014-Oct-20 16:33N 44°39' W 063°34'0 0.2
2014-Oct-20 15:33N 44°39' W 063°35'0 0.0
2014-Oct-20 14:33N 44°39' W 063°35'0 0.0
2014-Oct-20 13:33N 44°39' W 063°35'0 0.0
2014-Oct-20 12:33N 44°39' W 063°35'0 0.0
2014-Oct-20 11:33N 44°39' W 063°35'0 0.0
2014-Oct-20 10:34N 44°39' W 063°35'0 0.0
2014-Oct-20 09:33N 44°39' W 063°35'0 0.0
2014-Oct-20 08:33N 44°39' W 063°35'0 0.0
2014-Oct-20 07:33N 44°39' W 063°35'0 0.0
2014-Oct-20 06:33N 44°39' W 063°35'0 0.0
2014-Oct-20 05:33N 44°39' W 063°35'0 0.0
2014-Oct-20 04:33N 44°39' W 063°35'0 0.0
2014-Oct-20 03:33N 44°39' W 063°35'0 0.0
2014-Oct-20 02:33N 44°39' W 063°35'0 0.0
2014-Oct-20 01:33N 44°39' W 063°35'0 0.0
2014-Oct-20 00:33N 44°39' W 063°35'0 0.0
2014-Oct-19 23:34N 44°39' W 063°35'0 0.0
2014-Oct-19 22:34N 44°39' W 063°35'0 0.0
2014-Oct-19 21:33N 44°39' W 063°35'0 0.0
2014-Oct-19 20:33N 44°39' W 063°35'0 0.0
2014-Oct-19 19:33N 44°39' W 063°35'0 0.0
2014-Oct-19 18:33N 44°39' W 063°35'0 0.0
2014-Oct-19 17:33N 44°39' W 063°35'0 0.0
2014-Oct-19 16:33N 44°39' W 063°35'0 0.0
2014-Oct-19 15:33N 44°39' W 063°35'0 0.0
2014-Oct-19 14:33N 44°39' W 063°35'0 0.0
2014-Oct-19 13:33N 44°39' W 063°35'0 0.0
2014-Oct-19 12:33N 44°39' W 063°35'0 0.0
2014-Oct-19 11:33N 44°39' W 063°35'0 0.0
2014-Oct-19 10:34N 44°39' W 063°35'0 0.0
2014-Oct-19 09:33N 44°39' W 063°35'0 0.0
2014-Oct-19 08:33N 44°39' W 063°35'0 0.0
2014-Oct-19 07:34N 44°39' W 063°35'0 0.0
2014-Oct-19 06:33N 44°39' W 063°35'0 0.0
2014-Oct-19 05:33N 44°39' W 063°35'0 0.0
2014-Oct-19 04:33N 44°39' W 063°35'0 0.0
2014-Oct-19 03:33N 44°39' W 063°35'0 0.0
2014-Oct-19 02:33N 44°39' W 063°35'0 0.0
2014-Oct-19 01:33N 44°39' W 063°35'0 0.0
2014-Oct-19 00:33N 44°39' W 063°35'0 0.0
2014-Oct-18 23:33N 44°39' W 063°35'0 0.0
2014-Oct-18 22:33N 44°39' W 063°35'0 0.0
2014-Oct-18 21:33N 44°39' W 063°35'0 0.0
2014-Oct-18 20:33N 44°39' W 063°35'0 0.0
2014-Oct-18 19:34N 44°39' W 063°35'0 0.0
2014-Oct-18 18:33N 44°39' W 063°35'0 0.0
2014-Oct-18 17:33N 44°39' W 063°35'0 0.0
2014-Oct-18 16:34N 44°39' W 063°35'0 0.0
2014-Oct-18 15:33N 44°39' W 063°35'0 0.0
2014-Oct-18 14:33N 44°39' W 063°35'0 0.0
2014-Oct-18 13:33N 44°39' W 063°35'0 0.0
2014-Oct-18 12:33N 44°39' W 063°35'0 0.0
2014-Oct-18 11:33N 44°39' W 063°35'0 0.0
2014-Oct-18 10:33N 44°39' W 063°35'0 0.0
2014-Oct-18 09:33N 44°39' W 063°35'0 0.0
2014-Oct-18 08:33N 44°39' W 063°35'0 0.0
2014-Oct-18 07:33N 44°39' W 063°35'0 0.0
2014-Oct-18 06:34N 44°39' W 063°35'0 0.0
2014-Oct-18 05:34N 44°39' W 063°35'0 0.0
2014-Oct-18 04:34N 44°39' W 063°35'0 0.0
2014-Oct-18 03:33N 44°39' W 063°35'0 0.0
2014-Oct-18 02:33N 44°39' W 063°35'0 0.0
2014-Oct-18 01:33N 44°39' W 063°35'0 0.0
2014-Oct-18 00:33N 44°39' W 063°35'0 0.0
2014-Oct-17 23:33N 44°39' W 063°35'0 0.0
2014-Oct-17 22:33N 44°39' W 063°35'0 0.0
2014-Oct-17 21:33N 44°39' W 063°35'0 0.0
2014-Oct-17 20:33N 44°39' W 063°35'0 0.0
2014-Oct-17 19:33N 44°39' W 063°35'0 0.0
2014-Oct-17 18:33N 44°39' W 063°35'0 0.0
2014-Oct-17 17:33N 44°39' W 063°35'0 0.0
2014-Oct-17 16:33N 44°39' W 063°35'0 0.0
2014-Oct-17 15:33N 44°39' W 063°35'0 0.0
2014-Oct-17 14:33N 44°39' W 063°35'0 0.0
2014-Oct-17 13:33N 44°39' W 063°35'0 0.0
2014-Oct-17 12:33N 44°39' W 063°35'0 0.0
2014-Oct-17 11:33N 44°39' W 063°35'0 0.0
2014-Oct-17 10:33N 44°39' W 063°35'0 0.0
2014-Oct-17 09:33N 44°39' W 063°35'0 0.0
2014-Oct-17 08:33N 44°39' W 063°35'0 0.0
2014-Oct-17 07:33N 44°39' W 063°35'0 0.0
2014-Oct-17 06:33N 44°39' W 063°35'0 0.0
2014-Oct-17 05:33N 44°39' W 063°35'0 0.0
2014-Oct-17 04:33N 44°39' W 063°35'0 0.0
2014-Oct-17 03:33N 44°39' W 063°35'0 0.0
2014-Oct-17 02:33N 44°39' W 063°35'0 0.0
2014-Oct-17 01:34N 44°39' W 063°35'0 0.0
2014-Oct-17 00:33N 44°39' W 063°35'0 0.0
2014-Oct-16 23:33N 44°39' W 063°35'0 0.0
2014-Oct-16 22:33N 44°39' W 063°35'0 0.0
2014-Oct-16 21:33N 44°39' W 063°35'0 0.0
2014-Oct-16 20:33N 44°39' W 063°35'0 0.0
2014-Oct-16 19:33N 44°39' W 063°35'0 0.0
2014-Oct-16 18:33N 44°39' W 063°35'0 0.0
2014-Oct-16 17:33N 44°39' W 063°35'2 2.1
2014-Oct-16 16:33N 44°38' W 063°33'7 5.7
2014-Oct-16 15:21N 44°32' W 063°27'1 0.8
2014-Oct-16 14:30N 44°32' W 063°26'1 0.6
2014-Oct-16 13:33N 44°32' W 063°25'  
Track history (hours):
 
Tides and Currents Weather Stations Pressure Air Temp Water Temp Dewpoint Dewpoint Depression Visibility Wind Speed Wind Dir Waves Ship Positions

Canadian Warship 707

Last reported at 2014-Oct-22 23:33 UTC. Time now 2014-Oct-23 00:07 UTC.
Position N 44°39' W 063°35'.

Length 55 m; draft 3.3 m.

Type: Military. MMSI: 316200000.

Date/timePositionNaut miles runAvg speedWind from/ knotsBaromVisibWave heightAir tempDewpointWater temp
2014-Oct-22 23:33N 44°39' W 063°35'0 0.0
2014-Oct-22 22:33N 44°39' W 063°35'0 0.0
2014-Oct-22 21:27N 44°39' W 063°35'0 0.0
2014-Oct-22 20:27N 44°39' W 063°35'0 0.0
2014-Oct-22 19:27N 44°39' W 063°35'0 0.0
2014-Oct-22 18:30N 44°39' W 063°35'0 0.0
2014-Oct-22 17:15N 44°39' W 063°35'0 0.0
2014-Oct-22 16:30N 44°39' W 063°35'0 0.0
2014-Oct-22 15:30N 44°39' W 063°35'0 0.0
2014-Oct-22 14:33N 44°39' W 063°35'0 0.0
2014-Oct-22 13:33N 44°39' W 063°35'0 0.0
2014-Oct-22 12:33N 44°39' W 063°35'0 0.0
2014-Oct-22 11:33N 44°39' W 063°35'0 0.0
2014-Oct-22 10:33N 44°39' W 063°35'0 0.0
2014-Oct-22 09:33N 44°39' W 063°35'0 0.0
2014-Oct-22 08:33N 44°39' W 063°35'0 0.0
2014-Oct-22 07:33N 44°39' W 063°35'0 0.0
2014-Oct-22 06:33N 44°39' W 063°35'0 0.0
2014-Oct-22 05:33N 44°39' W 063°35'0 0.0
2014-Oct-22 04:33N 44°39' W 063°35'0 0.0
2014-Oct-22 03:33N 44°39' W 063°35'0 0.0
2014-Oct-22 02:33N 44°39' W 063°35'0 0.0
2014-Oct-22 01:33N 44°39' W 063°35'0 0.0
2014-Oct-22 00:33N 44°39' W 063°35'0 0.0
2014-Oct-21 23:33N 44°39' W 063°35'0 0.0
2014-Oct-21 22:33N 44°39' W 063°35'0 0.0
2014-Oct-21 21:33N 44°39' W 063°35'0 0.0
2014-Oct-21 20:32N 44°39' W 063°35'0 0.0
2014-Oct-21 19:33N 44°39' W 063°35'0 0.0
2014-Oct-21 18:33N 44°39' W 063°35'2 2.2
2014-Oct-21 17:33N 44°38' W 063°33'12 3.5
2014-Oct-21 14:12N 44°32' W 063°19'812.3
2014-Oct-21 13:33N 44°31' W 063°30'9 8.7
2014-Oct-21 12:33N 44°39' W 063°34'0 0.2
2014-Oct-21 11:25N 44°39' W 063°35'0 0.0
2014-Oct-21 10:25N 44°39' W 063°35'0 0.0
2014-Oct-21 09:25N 44°39' W 063°35'0 0.0
2014-Oct-21 08:13N 44°39' W 063°35'0 0.0
2014-Oct-21 07:28N 44°39' W 063°35'0 0.0
2014-Oct-21 06:28N 44°39' W 063°35'0 0.0
2014-Oct-21 05:31N 44°39' W 063°35'0 0.0
2014-Oct-21 04:31N 44°39' W 063°35'0 0.0
2014-Oct-21 03:28N 44°39' W 063°35'0 0.0
2014-Oct-21 02:31N 44°39' W 063°35'0 0.0
2014-Oct-21 01:31N 44°39' W 063°35'0 0.0
2014-Oct-21 00:31N 44°39' W 063°35'0 0.0
2014-Oct-20 23:33N 44°39' W 063°35'0 0.0
2014-Oct-20 22:33N 44°39' W 063°35'0 0.0
2014-Oct-20 21:33N 44°39' W 063°35'0 0.0
2014-Oct-20 20:33N 44°39' W 063°35'0 0.0
2014-Oct-20 19:33N 44°39' W 063°35'0 0.0
2014-Oct-20 18:33N 44°39' W 063°35'0 0.0
2014-Oct-20 17:33N 44°39' W 063°35'0 0.3
2014-Oct-20 16:33N 44°39' W 063°34'0 0.2
2014-Oct-20 15:33N 44°39' W 063°35'0 0.0
2014-Oct-20 14:33N 44°39' W 063°35'0 0.0
2014-Oct-20 13:33N 44°39' W 063°35'0 0.0
2014-Oct-20 12:33N 44°39' W 063°35'0 0.0
2014-Oct-20 11:33N 44°39' W 063°35'0 0.0
2014-Oct-20 10:34N 44°39' W 063°35'0 0.0
2014-Oct-20 09:33N 44°39' W 063°35'0 0.0
2014-Oct-20 08:33N 44°39' W 063°35'0 0.0
2014-Oct-20 07:33N 44°39' W 063°35'0 0.0
2014-Oct-20 06:33N 44°39' W 063°35'0 0.0
2014-Oct-20 05:33N 44°39' W 063°35'0 0.0
2014-Oct-20 04:33N 44°39' W 063°35'0 0.0
2014-Oct-20 03:33N 44°39' W 063°35'0 0.0
2014-Oct-20 02:33N 44°39' W 063°35'0 0.0
2014-Oct-20 01:33N 44°39' W 063°35'0 0.0
2014-Oct-20 00:33N 44°39' W 063°35'0 0.0
2014-Oct-19 23:34N 44°39' W 063°35'0 0.0
2014-Oct-19 22:34N 44°39' W 063°35'0 0.0
2014-Oct-19 21:33N 44°39' W 063°35'0 0.0
2014-Oct-19 20:33N 44°39' W 063°35'0 0.0
2014-Oct-19 19:33N 44°39' W 063°35'0 0.0
2014-Oct-19 18:33N 44°39' W 063°35'0 0.0
2014-Oct-19 17:33N 44°39' W 063°35'0 0.0
2014-Oct-19 16:33N 44°39' W 063°35'0 0.0
2014-Oct-19 15:33N 44°39' W 063°35'0 0.0
2014-Oct-19 14:33N 44°39' W 063°35'0 0.0
2014-Oct-19 13:33N 44°39' W 063°35'0 0.0
2014-Oct-19 12:33N 44°39' W 063°35'0 0.0
2014-Oct-19 11:33N 44°39' W 063°35'0 0.0
2014-Oct-19 10:34N 44°39' W 063°35'0 0.0
2014-Oct-19 09:33N 44°39' W 063°35'0 0.0
2014-Oct-19 08:33N 44°39' W 063°35'0 0.0
2014-Oct-19 07:34N 44°39' W 063°35'0 0.0
2014-Oct-19 06:33N 44°39' W 063°35'0 0.0
2014-Oct-19 05:33N 44°39' W 063°35'0 0.0
2014-Oct-19 04:33N 44°39' W 063°35'0 0.0
2014-Oct-19 03:33N 44°39' W 063°35'0 0.0
2014-Oct-19 02:33N 44°39' W 063°35'0 0.0
2014-Oct-19 01:33N 44°39' W 063°35'0 0.0
2014-Oct-19 00:33N 44°39' W 063°35'0 0.0
2014-Oct-18 23:33N 44°39' W 063°35'0 0.0
2014-Oct-18 22:33N 44°39' W 063°35'0 0.0
2014-Oct-18 21:33N 44°39' W 063°35'0 0.0
2014-Oct-18 20:33N 44°39' W 063°35'0 0.0
2014-Oct-18 19:34N 44°39' W 063°35'0 0.0
2014-Oct-18 18:33N 44°39' W 063°35'0 0.0
2014-Oct-18 17:33N 44°39' W 063°35'0 0.0
2014-Oct-18 16:34N 44°39' W 063°35'0 0.0
2014-Oct-18 15:33N 44°39' W 063°35'0 0.0
2014-Oct-18 14:33N 44°39' W 063°35'0 0.0
2014-Oct-18 13:33N 44°39' W 063°35'0 0.0
2014-Oct-18 12:33N 44°39' W 063°35'0 0.0
2014-Oct-18 11:33N 44°39' W 063°35'0 0.0
2014-Oct-18 10:33N 44°39' W 063°35'0 0.0
2014-Oct-18 09:33N 44°39' W 063°35'0 0.0
2014-Oct-18 08:33N 44°39' W 063°35'0 0.0
2014-Oct-18 07:33N 44°39' W 063°35'0 0.0
2014-Oct-18 06:34N 44°39' W 063°35'0 0.0
2014-Oct-18 05:34N 44°39' W 063°35'0 0.0
2014-Oct-18 04:34N 44°39' W 063°35'0 0.0
2014-Oct-18 03:33N 44°39' W 063°35'0 0.0
2014-Oct-18 02:33N 44°39' W 063°35'0 0.0
2014-Oct-18 01:33N 44°39' W 063°35'0 0.0
2014-Oct-18 00:33N 44°39' W 063°35'0 0.0
2014-Oct-17 23:33N 44°39' W 063°35'0 0.0
2014-Oct-17 22:33N 44°39' W 063°35'0 0.0
2014-Oct-17 21:33N 44°39' W 063°35'0 0.0
2014-Oct-17 20:33N 44°39' W 063°35'0 0.0
2014-Oct-17 19:33N 44°39' W 063°35'0 0.0
2014-Oct-17 18:33N 44°39' W 063°35'0 0.0
2014-Oct-17 17:33N 44°39' W 063°35'0 0.0
2014-Oct-17 16:33N 44°39' W 063°35'0 0.0
2014-Oct-17 15:33N 44°39' W 063°35'0 0.0
2014-Oct-17 14:33N 44°39' W 063°35'0 0.0
2014-Oct-17 13:33N 44°39' W 063°35'0 0.0
2014-Oct-17 12:33N 44°39' W 063°35'0 0.0
2014-Oct-17 11:33N 44°39' W 063°35'0 0.0
2014-Oct-17 10:33N 44°39' W 063°35'0 0.0
2014-Oct-17 09:33N 44°39' W 063°35'0 0.0
2014-Oct-17 08:33N 44°39' W 063°35'0 0.0
2014-Oct-17 07:33N 44°39' W 063°35'0 0.0
2014-Oct-17 06:33N 44°39' W 063°35'0 0.0
2014-Oct-17 05:33N 44°39' W 063°35'0 0.0
2014-Oct-17 04:33N 44°39' W 063°35'0 0.0
2014-Oct-17 03:33N 44°39' W 063°35'0 0.0
2014-Oct-17 02:33N 44°39' W 063°35'0 0.0
2014-Oct-17 01:34N 44°39' W 063°35'0 0.0
2014-Oct-17 00:33N 44°39' W 063°35'0 0.0
2014-Oct-16 23:33N 44°39' W 063°35'0 0.0
2014-Oct-16 22:33N 44°39' W 063°35'0 0.0
2014-Oct-16 21:33N 44°39' W 063°35'0 0.0
2014-Oct-16 20:33N 44°39' W 063°35'0 0.0
2014-Oct-16 19:33N 44°39' W 063°35'0 0.0
2014-Oct-16 18:33N 44°39' W 063°35'0 0.0
2014-Oct-16 17:33N 44°39' W 063°35'2 2.1
2014-Oct-16 16:33N 44°38' W 063°33'7 5.7
2014-Oct-16 15:21N 44°32' W 063°27'1 0.8
2014-Oct-16 14:30N 44°32' W 063°26'1 0.6
2014-Oct-16 13:33N 44°32' W 063°25'  

Dump ship's entire track history